Regional Weather Roundup
Issued by NWS Sterling, VA

Home | Current Version | Previous Version | Graphics & Text | Print | Product List | Glossary Off
Versions: 1 2 3 4 5 6 7 8 9 10 11 12 13 14 15 16 17 18 19 20 21 22 23 24 25 26 27 28 29 30 31 32 33 34 35 36 37 38 39 40 41 42 43 44 45 46 47 48 49 50

289
ASUS41 KLWX 251510
RWRLWX

REGIONAL WEATHER ROUNDUP
NATIONAL WEATHER SERVICE BALTIMORE MD/WASHINGTON DC
1100 AM EDT WED MAY 25 2016

Note: "FAIR" indicates few or no clouds below 12,000 feet
with no significant weather and/or obstructions to visibility.
 TC=TEMPERATURE CELSIUS

 * =Non NWS site. Station does not report precipitation (e.g. rain,
    snow, etc.), thunder, or fog.

DCZ001-MDZ009-015-VAZ040>042-051-053>054-251600-
WASHINGTON METRO

CITY           SKY/WX    TMP DP  RH WIND       PRES   REMARKS
WASHINGTON NAT CLOUDY    78  58  49 CALM      30.15F
DULLES         PTSUNNY   80  55  42 W5        30.16F
ANDREWS AFB    SUNNY     80  54  40 W8        30.15S
FT BELVOIR     FAIR      82  55  38 CALM      30.15F
QUANTICO       FAIR      71  62  73 SW6       30.17S
COLLEGE PARK*  FAIR      81  52  36 NW7       30.15S
LEESBURG*      FAIR      82  59  44 NW9       30.17F
MANASSAS*      SUNNY     81  57  44 CALM      30.16F

$$

MDZ006>007-011-014-251600-
BALTIMORE METRO

CITY           SKY/WX    TMP DP  RH WIND       PRES   REMARKS
BWI AIRPORT    PTSUNNY   82  52  35 W12       30.13F
MD SCIENCE CTR   N/A     83  50  31 MISG      30.15F
MARTIN STATE   MOSUNNY   84  54  34 W7        30.14F
ANNAPOLIS      SUNNY     76  58  53 N6        30.14S
FORT MEADE*    SUNNY     81  54  39 W6        30.16F

$$

MDZ012-015-019>023-251600-
MARYLAND EASTERN SHORE

CITY           SKY/WX    TMP DP  RH WIND       PRES   REMARKS
OCEAN CITY     SUNNY     81  55  40 CALM      30.14S
SALISBURY      SUNNY     81  54  39 SW5       30.14S
BAY BRIDGE AP* SUNNY     79  57  47 W6        30.14S
EASTON*        MOSUNNY   81  63  54 NW6       30.18S

$$

MDZ017>025-251600-
SOUTHERN MARYLAND

CITY           SKY/WX    TMP DP  RH WIND       PRES   REMARKS
PATUXENT RIVER PTSUNNY   80  55  42 NW8       30.15F
ST INIGOES     SUNNY     76  60  57 W3        30.15S
LEONARDTOWN*   SUNNY     79  55  44 CALM      30.17S

$$

MDZ003>005-251600-
NORTH CENTRAL MARYLAND

CITY           SKY/WX    TMP DP  RH WIND       PRES   REMARKS
FREDERICK*     SUNNY     79  61  53 W7        30.18F
HAGERSTOWN APT SUNNY     74  55  51 SW6       30.16F
WESTMINSTER*   SUNNY     77  73  88 SW7       30.16S

$$

MDZ501>502-251600-
WESTERN MARYLAND

CITY           SKY/WX    TMP DP  RH WIND       PRES   REMARKS
OAKLAND*       NOT AVBL
CUMBERLAND*    CLOUDY    72  59  64 CALM      30.22S

$$

VAZ025>031-251600-
SHENANDOAH VALLEY

CITY           SKY/WX    TMP DP  RH WIND       PRES   REMARKS
WINCHESTER*    FAIR      77  55  47 S5        30.18S
FRONT ROYAL*   FAIR      77  57  50 S7        30.18S
LURAY*         FAIR      73  55  53 S5        30.21S
NEW MARKET*    FAIR      75  54  48 SW5       30.19S
STAUNTON*      FAIR      73  54  51 CALM      30.25R
WAYNESBORO*    FAIR      74  52  45 CALM      30.24R

$$

WVZ021-048>050-054>055-251600-
EASTERN WEST VIRGINIA PANHANDLE

CITY           SKY/WX    TMP DP  RH WIND       PRES   REMARKS
MARTINSBURG    FAIR      78  55  44 SW6       30.16F
PETERSBURG*    FAIR      76  60  58 CALM      30.21S

$$

VAZ036>039-050-251600-
CENTRAL FOOTHILLS

CITY           SKY/WX    TMP DP  RH WIND       PRES   REMARKS
CHARLOTTESVILL FAIR      79  54  41 VRB3      30.19S
CULPEPER*      FAIR      80  56  43 NW6       30.18S
ORANGE*        FAIR      81  54  39 CALM      30.20S
GORDONSVILLE*  FAIR      79  53  40 W3        30.18S
WARRENTON*     FAIR      83  46  27 NW3       30.17S

$$

VAZ055>057-251600-
NORTH AND CENTRAL PIEDMONT

CITY           SKY/WX    TMP DP  RH WIND       PRES   REMARKS
FREDERICKSBRG* FAIR      81  55  41 N5        30.16S
STAFFORD*      FAIR      80  54  40 N5        30.20S

$$

NCZ024-NYZ072-PAZ021-071-VAZ022-071-251600-
OTHER REGIONAL OBSERVATIONS

CITY           SKY/WX    TMP DP  RH WIND       PRES   REMARKS
NEW YORK CITY  SUNNY     78  46  32 W7        30.10S
PHILADELPHIA   MOSUNNY   80  43  26 VRB5      30.11F
PITTSBURGH     CLOUDY    77  49  37 SW12G17   30.18R
ROANOKE        FAIR      75  55  49 CALM      30.26S
RICHMOND       PTSUNNY   82  54  37 NE3       30.18S
RALEIGH        MOSUNNY   80  60  50 SW5       30.23S

$$

ANZ530>537-251600-
MARINE OBSERVATIONS

STATION/POSITION TIME  TEMP    WIND        PRES
                       AIR SEA DIR/SP/G
                 (UTC) (F)     (DEG/KT/KT) (MB)
THOMAS PT LIGHT  1500   74 63  210/  4/  5 1022.0F
BALT KEY BRIDGE  1400   75     280/  7/  8 1020.4F
COVE POINT       1400   71      40/  5/  5 1021.6F
LEWISETTA        1400   76 67  310/  3/  4 1021.0F
SOLOMONS ISLAND  1400   74 63  340/  7/  8   N/A
PINEY POINT      1400          340/  8/  8   N/A

$$





USA.gov is the U.S. government's official web portal to all federal, state and local government web resources and services.